OK,53,59,696,53,2014-10-01T01:40:00,0,28072023,185263
OK,53,59,696,53,2014-10-01T01:45:00,0,28072466,185263
OK,53,59,696,53,2014-10-01T01:50:00,0,28072915,185263
OK,53,59,696,53,2014-10-01T01:55:00,0,28073362,185263
OK,53,59,696,53,2014-10-01T02:05:00,0,28074128,185263
OK,53,59,696,53,2014-10-01T02:10:00,0,28074577,185263
OK,53,59,696,53,2014-10-01T02:15:00,0,28075017,185263
OK,53,59,696,53,2014-10-01T02:20:00,0,28075466,185263
OK,53,59,696,53,2014-10-01T02:25:00,0,28075915,185263
OK,53,59,696,53,2014-10-01T02:30:00,0,28076298,185263
OK,53,59,696,53,2014-10-01T02:35:00,0,28076747,185263
OK,53,59,696,53,2014-10-01T02:40:00,0,28077196,185263
OK,53,59,696,53,2014-10-01T02:45:00,0,28077645,185263
OK,53,59,696,53,2014-10-01T02:50:00,0,28078048,185263
OK,53,59,696,53,2014-10-01T02:55:00,0,28078497,185263
OK,53,59,696,53,2014-10-01T03:00:00,0,28078942,185263
OK,53,59,696,53,2014-10-01T03:05:00,0,28079390,185263
OK,53,59,696,53,2014-10-01T03:10:00,0,28079833,185263
OK,53,59,696,53,2014-10-01T03:15:00,0,28080282,185263
OK,53,59,696,53,2014-10-01T03:20:00,0,28080616,185263
OK,53,59,696,53,2014-10-01T03:25:00,0,28081065,185263
OK,53,59,696,53,2014-10-01T03:30:00,0,28081514,185263
OK,53,59,696,53,2014-10-01T03:35:00,0,28081961,185263
OK,53,59,696,53,2014-10-01T03:40:00,0,28082410,185263
OK,53,59,696,53,2014-10-01T03:45:00,0,28082843,185263
OK,75,42,696,75,2014-10-01T03:50:00,1,28083275,185263
OK,75,42,696,75,2014-10-01T03:55:00,1,28083724,185263
OK,80,39,696,80,2014-10-01T04:00:00,2,28084173,185263
OK,57,55,696,57,2014-10-01T04:05:00,1,28084614,185263
OK,57,55,696,57,2014-10-01T04:10:00,1,28085039,185263
OK,57,55,696,57,2014-10-01T04:15:00,0,28085488,185263
OK,57,55,696,57,2014-10-01T04:20:00,0,28085933,185263
OK,101,31,696,101,2014-10-01T04:25:00,1,28086382,185263
OK,101,31,696,101,2014-10-01T04:30:00,0,28086824,185263
OK,101,31,696,101,2014-10-01T04:35:00,0,28087273,185263
OK,101,31,696,101,2014-10-01T04:40:00,0,28087718,185263
OK,101,31,696,101,2014-10-01T04:45:00,0,28088167,185263
OK,101,31,696,101,2014-10-01T04:50:00,0,28088591,185263
OK,101,31,696,101,2014-10-01T04:55:00,0,28089040,185263
OK,140,22,696,140,2014-10-01T05:00:00,1,28089470,185263
OK,108,29,696,108,2014-10-01T05:05:00,2,28089919,185263
OK,83,38,696,83,2014-10-01T05:10:00,4,28090368,185263
OK,83,38,696,83,2014-10-01T05:15:00,4,28090712,185263
OK,86,36,696,86,2014-10-01T05:20:00,0,28091161,185263
OK,86,36,696,86,2014-10-01T05:25:00,0,28091610,185263
OK,86,36,696,86,2014-10-01T05:30:00,0,28092027,185263
OK,86,36,696,86,2014-10-01T05:35:00,0,28092476,185263
OK,86,36,696,86,2014-10-01T05:40:00,0,28092920,185263
OK,125,25,696,125,2014-10-01T05:45:00,1,28093361,185263
OK,125,25,696,125,2014-10-01T05:50:00,3,28093792,185263
OK,108,29,696,108,2014-10-01T05:55:00,5,28094241,185263
OK,102,31,696,102,2014-10-01T06:00:00,4,28094652,185263
OK,106,29,696,106,2014-10-01T06:05:00,4,28095097,185263
OK,114,27,696,114,2014-10-01T06:10:00,5,28095544,185263
OK,115,27,696,115,2014-10-01T06:15:00,2,28095993,185263
OK,100,31,696,100,2014-10-01T06:20:00,2,28096406,185263
OK,100,31,696,100,2014-10-01T06:25:00,2,28096855,185263
OK,100,31,696,100,2014-10-01T06:30:00,0,28097289,185263
OK,138,22,696,138,2014-10-01T06:35:00,3,28097738,185263
OK,138,22,696,138,2014-10-01T06:40:00,3,28098187,185263
OK,76,41,696,76,2014-10-01T06:45:00,1,28098624,185263
OK,100,31,696,100,2014-10-01T06:50:00,6,28099068,185263
OK,144,22,696,144,2014-10-01T06:55:00,5,28099516,185263
OK,140,22,696,140,2014-10-01T07:00:00,4,28099859,185263
OK,133,23,696,133,2014-10-01T07:10:00,0,28100615,185263
OK,129,24,696,129,2014-10-01T07:15:00,1,28101063,185263
OK,129,24,696,129,2014-10-01T07:20:00,1,28101435,185263
OK,165,19,696,165,2014-10-01T07:25:00,3,28101884,185263
OK,124,25,696,124,2014-10-01T07:30:00,8,28102320,185263
OK,86,36,696,86,2014-10-01T07:35:00,5,28102769,185263
OK,120,26,696,120,2014-10-01T07:40:00,1,28103196,185263
OK,86,36,696,86,2014-10-01T07:45:00,2,28103643,185263
OK,87,36,696,87,2014-10-01T07:50:00,5,28104088,185263
OK,88,36,696,88,2014-10-01T07:55:00,9,28104533,185263
OK,98,32,696,98,2014-10-01T08:00:00,7,28104974,185263
OK,49,64,696,49,2014-10-01T08:05:00,1,28105419,185263
OK,156,20,696,156,2014-10-01T08:10:00,3,28105859,185263
OK,132,24,696,132,2014-10-01T08:15:00,4,28106308,185263
OK,133,23,696,133,2014-10-01T08:20:00,2,28106745,185263
OK,135,23,696,135,2014-10-01T08:25:00,3,28107151,185263
OK,74,42,696,74,2014-10-01T08:30:00,3,28107583,185263
OK,89,35,696,89,2014-10-01T08:35:00,5,28108032,185263
OK,97,32,696,97,2014-10-01T08:40:00,8,28108471,185263
OK,114,27,696,114,2014-10-01T08:45:00,5,28108920,185263
OK,116,27,696,116,2014-10-01T08:50:00,4,28109348,185263
OK,96,33,696,96,2014-10-01T09:00:00,3,28110140,185263
OK,130,24,696,130,2014-10-01T09:05:00,3,28110589,185263
OK,120,26,696,120,2014-10-01T09:10:00,4,28111012,185263
OK,97,32,696,97,2014-10-01T09:15:00,4,28111461,185263
OK,105,30,696,105,2014-10-01T09:20:00,4,28111890,185263
OK,106,29,696,106,2014-10-01T09:25:00,5,28112337,185263
OK,95,33,696,95,2014-10-01T09:30:00,2,28112680,185263
OK,98,32,696,98,2014-10-01T09:35:00,2,28113129,185263
OK,82,38,696,82,2014-10-01T09:40:00,1,28113553,185263
OK,82,38,696,82,2014-10-01T09:45:00,0,28114002,185263
OK,132,24,696,132,2014-10-01T09:50:00,10,28114434,185263
OK,134,23,696,134,2014-10-01T10:00:00,2,28115237,185263
OK,86,36,696,86,2014-10-01T10:05:00,3,28115686,185263
OK,86,36,696,86,2014-10-01T10:10:00,5,28116098,185263
OK,125,25,696,125,2014-10-01T10:15:00,7,28116547,185263
OK,125,25,696,125,2014-10-01T10:20:00,7,28116955,185263
OK,134,23,696,134,2014-10-01T10:25:00,6,28117404,185263
OK,134,23,696,134,2014-10-01T10:30:00,8,28117829,185263
OK,160,19,696,160,2014-10-01T10:35:00,5,28118278,185263
OK,270,11,696,270,2014-10-01T10:40:00,1,28118723,185263
OK,89,35,696,89,2014-10-01T10:45:00,1,28119170,185263
OK,111,28,696,111,2014-10-01T10:50:00,2,28119614,185263
OK,78,40,696,78,2014-10-01T10:55:00,4,28120062,185263
OK,143,22,696,143,2014-10-01T11:00:00,5,28120510,185263
OK,144,22,696,144,2014-10-01T11:05:00,2,28120959,185263
OK,128,24,696,128,2014-10-01T11:10:00,2,28121342,185263
OK,94,33,696,94,2014-10-01T11:15:00,5,28121791,185263
OK,94,33,696,94,2014-10-01T11:20:00,5,28122229,185263
OK,135,23,696,135,2014-10-01T11:25:00,3,28122678,185263
OK,135,23,696,135,2014-10-01T11:30:00,1,28123119,185263
OK,110,28,696,110,2014-10-01T11:35:00,3,28123568,185263
OK,124,25,696,124,2014-10-01T11:40:00,1,28124000,185263
OK,102,31,696,102,2014-10-01T11:45:00,5,28124449,185263
OK,102,31,696,102,2014-10-01T11:50:00,7,28124851,185263
OK,83,38,696,83,2014-10-01T11:55:00,1,28125300,185263
OK,111,28,696,111,2014-10-01T12:00:00,5,28125729,185263
OK,118,26,696,118,2014-10-01T12:10:00,4,28126530,185263
OK,125,25,696,125,2014-10-01T12:15:00,4,28126979,185263
OK,107,29,696,107,2014-10-01T12:20:00,3,28127428,185263
OK,114,27,696,114,2014-10-01T12:25:00,4,28127877,185263
OK,126,25,696,126,2014-10-01T12:30:00,3,28128305,185263
OK,135,23,696,135,2014-10-01T12:35:00,2,28128754,185263
OK,94,33,696,94,2014-10-01T12:40:00,4,28129189,185263
OK,87,36,696,87,2014-10-01T12:45:00,5,28129638,185263
OK,129,24,696,129,2014-10-01T12:50:00,4,28130072,185263
OK,108,29,696,108,2014-10-01T12:55:00,1,28130521,185263
OK,129,24,696,129,2014-10-01T13:00:00,1,28130949,185263
OK,129,24,696,129,2014-10-01T13:05:00,3,28131398,185263
OK,157,20,696,157,2014-10-01T13:10:00,4,28131835,185263
OK,168,18,696,168,2014-10-01T13:15:00,6,28132284,185263
OK,169,18,696,169,2014-10-01T13:20:00,7,28132722,185263
OK,163,19,696,163,2014-10-01T13:25:00,4,28133169,185263
OK,116,27,696,116,2014-10-01T13:30:00,4,28133607,185263
OK,87,36,696,87,2014-10-01T13:35:00,4,28134056,185263
OK,130,24,696,130,2014-10-01T13:40:00,1,28134495,185263
OK,130,24,696,130,2014-10-01T13:45:00,3,28134944,185263
OK,65,48,696,65,2014-10-01T13:50:00,4,28135363,185263
OK,70,45,696,70,2014-10-01T13:55:00,4,28135812,185263
OK,99,32,696,99,2014-10-01T14:00:00,5,28136249,185263
OK,106,29,696,106,2014-10-01T14:05:00,2,28136698,185263
OK,111,28,696,111,2014-10-01T14:10:00,3,28137138,185263
OK,141,22,696,141,2014-10-01T14:15:00,2,28137587,185263
OK,153,20,696,153,2014-10-01T14:20:00,5,28138021,185263
OK,127,24,696,127,2014-10-01T14:25:00,5,28138470,185263
OK,107,29,696,107,2014-10-01T14:30:00,6,28138898,185263
OK,107,29,696,107,2014-10-01T14:35:00,6,28139347,185263
OK,102,31,696,102,2014-10-01T14:40:00,3,28139758,185263
OK,114,27,696,114,2014-10-01T14:45:00,3,28140207,185263
OK,105,30,696,105,2014-10-01T14:50:00,4,28140649,185263
OK,123,25,696,123,2014-10-01T14:55:00,2,28141097,185263
OK,58,54,696,58,2014-10-01T15:00:00,0,28141524,185263
OK,111,28,696,111,2014-10-01T15:05:00,4,28141973,185263
OK,93,34,696,93,2014-10-01T15:10:00,5,28142401,185263
OK,103,30,696,103,2014-10-01T15:15:00,1,28142850,185263
OK,125,25,696,125,2014-10-01T15:20:00,3,28143277,185263
OK,125,25,696,125,2014-10-01T15:25:00,7,28143726,185263
OK,118,26,696,118,2014-10-01T15:30:00,11,28144174,185263
OK,119,26,696,119,2014-10-01T15:35:00,9,28144623,185263
OK,92,34,696,92,2014-10-01T15:40:00,5,28145044,185263
OK,136,23,696,136,2014-10-01T15:45:00,4,28145458,185263
OK,92,34,696,92,2014-10-01T15:50:00,3,28145907,185263
OK,72,44,696,72,2014-10-01T15:55:00,1,28146356,185263
OK,158,20,696,158,2014-10-01T16:00:00,1,28146805,185263
OK,158,20,696,158,2014-10-01T16:05:00,1,28147213,185263
OK,75,42,696,75,2014-10-01T16:10:00,1,28147657,185263
OK,75,42,696,75,2014-10-01T16:15:00,1,28148106,185263
OK,176,18,696,176,2014-10-01T16:20:00,1,28148507,185263
OK,154,20,696,154,2014-10-01T16:25:00,2,28148956,185263
OK,114,27,696,114,2014-10-01T16:30:00,2,28149395,185263
OK,114,27,696,114,2014-10-01T16:35:00,2,28149844,185263
OK,159,19,696,159,2014-10-01T16:40:00,1,28150270,185263
OK,159,19,696,159,2014-10-01T16:45:00,0,28150719,185263
OK,159,19,696,159,2014-10-01T16:50:00,0,28151137,185263
OK,130,24,696,130,2014-10-01T16:55:00,1,28151586,185263
OK,70,45,696,70,2014-10-01T17:05:00,3,28152035,185263
OK,104,30,696,104,2014-10-01T17:10:00,6,28152484,185263
OK,104,30,696,104,2014-10-01T17:15:00,5,28152930,185263
OK,104,30,696,104,2014-10-01T17:20:00,2,28153377,185263
OK,105,30,696,105,2014-10-01T17:25:00,4,28153826,185263
OK,111,28,696,111,2014-10-01T17:30:00,5,28154236,185263
OK,139,22,696,139,2014-10-01T17:35:00,3,28154685,185263
OK,127,24,696,127,2014-10-01T17:40:00,2,28155127,185263
OK,115,27,696,115,2014-10-01T17:45:00,1,28155575,185263
OK,63,50,696,63,2014-10-01T17:50:00,1,28155993,185263
OK,63,50,696,63,2014-10-01T17:55:00,1,28156442,185263
OK,111,28,696,111,2014-10-01T18:00:00,1,28156890,185263
OK,111,28,696,111,2014-10-01T18:05:00,1,28157329,185263
OK,111,28,696,111,2014-10-01T18:10:00,0,28157759,185263
OK,111,28,696,111,2014-10-01T18:15:00,0,28158207,185263
OK,111,28,696,111,2014-10-01T18:20:00,0,28158651,185263
OK,86,36,696,86,2014-10-01T18:25:00,1,28159096,185263
OK,133,23,696,133,2014-10-01T18:35:00,2,28159878,185263
OK,157,20,696,157,2014-10-01T18:40:00,2,28160327,185263
OK,62,51,696,62,2014-10-01T18:45:00,2,28160776,185263
OK,73,43,696,73,2014-10-01T18:50:00,6,28161214,185263
OK,113,28,696,113,2014-10-01T18:55:00,3,28161663,185263
OK,118,26,696,118,2014-10-01T19:00:00,1,28162080,185263
OK,57,55,696,57,2014-10-01T19:05:00,1,28162529,185263
OK,118,26,696,118,2014-10-01T19:10:00,0,28162923,185263
OK,108,29,696,108,2014-10-01T19:15:00,1,28163362,185263
OK,128,24,696,128,2014-10-01T19:20:00,2,28163810,185263
OK,148,21,696,148,2014-10-01T19:25:00,0,28164259,185263
OK,148,21,696,148,2014-10-01T19:30:00,0,28164690,185263
OK,164,19,696,164,2014-10-01T19:35:00,2,28165139,185263
OK,139,22,696,139,2014-10-01T19:40:00,3,28165564,185263
OK,86,36,696,86,2014-10-01T19:45:00,1,28166012,185263
OK,86,36,696,86,2014-10-01T19:55:00,0,28166815,185263
OK,86,36,696,86,2014-10-01T20:00:00,0,28167264,185263
OK,86,36,696,86,2014-10-01T20:05:00,0,28167693,185263
OK,86,36,696,86,2014-10-01T20:10:00,0,28168126,185263
OK,86,36,696,86,2014-10-01T20:15:00,0,28168575,185263
OK,86,36,696,86,2014-10-01T20:20:00,0,28169020,185263
OK,86,36,696,86,2014-10-01T20:25:00,0,28169469,185263
OK,86,36,696,86,2014-10-01T20:30:00,0,28169917,185263
OK,86,36,696,86,2014-10-01T20:35:00,0,28170343,185263
OK,86,36,696,86,2014-10-01T20:40:00,0,28170788,185263
OK,121,26,696,121,2014-10-01T20:45:00,1,28171236,185263
OK,77,41,696,77,2014-10-01T20:50:00,2,28171673,185263
OK,93,34,696,93,2014-10-01T20:55:00,1,28172119,185263
OK,88,36,696,88,2014-10-01T21:00:00,1,28172567,185263
OK,191,16,696,191,2014-10-01T21:05:00,1,28173013,185263
OK,191,16,696,191,2014-10-01T21:10:00,1,28173459,185263
OK,191,16,696,191,2014-10-01T21:15:00,0,28173908,185263
OK,61,51,696,61,2014-10-01T21:20:00,1,28174349,185263
OK,61,51,696,61,2014-10-01T21:25:00,0,28174798,185263
OK,61,51,696,61,2014-10-01T21:35:00,0,28175620,185263
OK,61,51,696,61,2014-10-01T21:40:00,0,28176069,185263
OK,102,31,696,102,2014-10-01T21:45:00,1,28176518,185263
OK,102,31,696,102,2014-10-01T21:50:00,1,28176967,185263
OK,102,31,696,102,2014-10-01T21:55:00,0,28177323,185263
OK,102,31,696,102,2014-10-01T22:00:00,0,28177763,185263
OK,102,31,696,102,2014-10-01T22:05:00,0,28178209,185263
OK,102,31,696,102,2014-10-01T22:10:00,0,28178658,185263
OK,102,31,696,102,2014-10-01T22:15:00,0,28179105,185263
OK,102,31,696,102,2014-10-01T22:20:00,0,28179539,185263
OK,102,31,696,102,2014-10-01T22:25:00,0,28179982,185263
OK,102,31,696,102,2014-10-01T22:30:00,0,28180429,185263
OK,102,31,696,102,2014-10-01T22:35:00,0,28180827,185263
OK,102,31,696,102,2014-10-01T22:40:00,0,28181276,185263
OK,102,31,696,102,2014-10-01T22:45:00,0,28181700,185263
OK,102,31,696,102,2014-10-01T22:50:00,0,28182148,185263
OK,102,31,696,102,2014-10-01T22:55:00,0,28182595,185263
OK,102,31,696,102,2014-10-01T23:00:00,0,28183044,185263
OK,102,31,696,102,2014-10-01T23:05:00,0,28183461,185263
OK,102,31,696,102,2014-10-01T23:10:00,0,28183894,185263
OK,102,31,696,102,2014-10-01T23:15:00,0,28184339,185263
OK,102,31,696,102,2014-10-01T23:20:00,0,28184788,185263
OK,102,31,696,102,2014-10-01T23:25:00,0,28185223,185263
OK,102,31,696,102,2014-10-01T23:30:00,0,28185671,185263
OK,102,31,696,102,2014-10-01T23:40:00,0,28186494,185263
OK,102,31,696,102,2014-10-01T23:45:00,0,28187334,185263
OK,102,31,696,102,2014-10-01T23:50:00,0,28187783,185263
OK,102,31,696,102,2014-10-01T23:55:00,0,28188227,185263
OK,102,31,696,102,2014-10-02T00:00:00,0,28188663,185263
OK,102,31,696,102,2014-10-02T00:10:00,0,28189109,185263
OK,102,31,696,102,2014-10-02T00:15:00,0,28189558,185263
OK,102,31,696,102,2014-10-02T00:20:00,0,28189980,185263
OK,102,31,696,102,2014-10-02T00:25:00,0,28190424,185263
OK,102,31,696,102,2014-10-02T00:30:00,0,28190782,185263
OK,102,31,696,102,2014-10-02T00:35:00,0,28191231,185263
OK,102,31,696,102,2014-10-02T00:45:00,0,28191986,185263
OK,102,31,696,102,2014-10-02T00:50:00,0,28192435,185263
OK,102,31,696,102,2014-10-02T00:55:00,0,28192868,185263
OK,102,31,696,102,2014-10-02T01:00:00,0,28193287,185263
OK,102,31,696,102,2014-10-02T01:05:00,0,28193679,185263
OK,102,31,696,102,2014-10-02T01:10:00,0,28194128,185263
OK,102,31,696,102,2014-10-02T01:15:00,0,28194577,185263
OK,102,31,696,102,2014-10-02T01:20:00,0,28195014,185263
OK,102,31,696,102,2014-10-02T01:25:00,0,28195262,185263
OK,102,31,696,102,2014-10-02T01:30:00,0,28195711,185263
OK,102,31,696,102,2014-10-02T01:35:00,0,28196160,185263
OK,102,31,696,102,2014-10-02T01:40:00,0,28196444,185263
OK,102,31,696,102,2014-10-02T01:45:00,0,28196893,185263
OK,102,31,696,102,2014-10-02T01:50:00,0,28197316,185263
OK,102,31,696,102,2014-10-02T01:55:00,0,28197765,185263
OK,102,31,696,102,2014-10-02T02:00:00,0,28198213,185263
OK,102,31,696,102,2014-10-02T02:05:00,0,28198661,185263
OK,102,31,696,102,2014-10-02T02:10:00,0,28199110,185263
OK,102,31,696,102,2014-10-02T02:15:00,0,28199482,185263
OK,102,31,696,102,2014-10-02T02:20:00,0,28199924,185263
OK,102,31,696,102,2014-10-02T02:25:00,0,28200366,185263
OK,102,31,696,102,2014-10-02T02:30:00,0,28200809,185263
OK,102,31,696,102,2014-10-02T02:35:00,0,28201258,185263
OK,102,31,696,102,2014-10-02T02:45:00,0,28201689,185263
OK,102,31,696,102,2014-10-02T02:50:00,0,28202138,185263
OK,102,31,696,102,2014-10-02T02:55:00,0,28202587,185263
OK,102,31,696,102,2014-10-02T03:00:00,0,28203029,185263
OK,102,31,696,102,2014-10-02T03:05:00,0,28203477,185263
OK,102,31,696,102,2014-10-02T03:15:00,0,28203912,185263
OK,102,31,696,102,2014-10-02T03:30:00,0,28204361,185263
OK,102,31,696,102,2014-10-02T03:35:00,0,28204810,185263
OK,102,31,696,102,2014-10-02T03:40:00,0,28205259,185263
OK,100,31,696,100,2014-10-02T03:45:00,0,28205687,185263
OK,100,31,696,100,2014-10-02T03:50:00,0,28206114,185263
OK,100,31,696,100,2014-10-02T03:55:00,0,28206517,185263
OK,82,38,696,82,2014-10-02T04:00:00,1,28206966,185263
OK,82,38,696,82,2014-10-02T04:05:00,0,28207415,185263
OK,82,38,696,82,2014-10-02T04:10:00,0,28207834,185263
OK,82,38,696,82,2014-10-02T04:15:00,0,28208283,185263
OK,113,28,696,113,2014-10-02T04:20:00,1,28208710,185263
OK,113,28,696,113,2014-10-02T04:25:00,0,28209159,185263
OK,113,28,696,113,2014-10-02T04:30:00,0,28209597,185263
OK,113,28,696,113,2014-10-02T04:35:00,0,28210046,185263
OK,113,28,696,113,2014-10-02T04:40:00,0,28210469,185263
OK,113,28,696,113,2014-10-02T04:45:00,0,28210918,185263
OK,113,28,696,113,2014-10-02T04:50:00,0,28211343,185263
OK,70,45,696,70,2014-10-02T05:00:00,1,28212165,185263
OK,70,45,696,70,2014-10-02T05:05:00,0,28212614,185263
OK,70,45,696,70,2014-10-02T05:10:00,0,28213043,185263
OK,99,32,696,99,2014-10-02T05:15:00,2,28213492,185263
OK,116,27,696,116,2014-10-02T05:20:00,0,28213930,185263
OK,116,27,696,116,2014-10-02T05:25:00,1,28214379,185263
OK,116,27,696,116,2014-10-02T05:30:00,0,28214792,185263
OK,116,27,696,116,2014-10-02T05:35:00,0,28215241,185263
OK,110,28,696,110,2014-10-02T05:40:00,3,28215657,185263
OK,105,30,696,105,2014-10-02T05:45:00,2,28216106,185263
OK,136,23,696,136,2014-10-02T05:50:00,0,28216445,185263
OK,80,39,696,80,2014-10-02T05:55:00,3,28216885,185263
OK,97,32,696,97,2014-10-02T06:00:00,2,28217332,185263
OK,115,27,696,115,2014-10-02T06:05:00,1,28217781,185263
OK,115,27,696,115,2014-10-02T06:10:00,0,28218220,185263
OK,59,53,696,59,2014-10-02T06:15:00,2,28218669,185263
OK,81,39,696,81,2014-10-02T06:20:00,4,28219089,185263
OK,60,52,696,60,2014-10-02T06:25:00,5,28219537,185263
OK,59,53,696,59,2014-10-02T06:30:00,2,28219911,185263
OK,80,39,696,80,2014-10-02T06:35:00,2,28220360,185263
OK,120,26,696,120,2014-10-02T06:40:00,7,28220794,185263
OK,123,25,696,123,2014-10-02T06:45:00,5,28221243,185263
OK,136,23,696,136,2014-10-02T07:00:00,4,28221910,185263
OK,144,22,696,144,2014-10-02T07:05:00,3,28222055,185263
OK,120,26,696,120,2014-10-02T07:10:00,1,28222504,185263
OK,120,26,696,120,2014-10-02T07:15:00,0,28222953,185263
OK,120,26,696,120,2014-10-02T07:20:00,0,28223384,185263
OK,84,37,696,84,2014-10-02T07:25:00,3,28223819,185263
OK,64,49,696,64,2014-10-02T07:35:00,2,28224622,185263
OK,64,49,696,64,2014-10-02T07:40:00,2,28225071,185263
OK,64,49,696,64,2014-10-02T07:45:00,0,28225481,185263
OK,134,23,696,134,2014-10-02T07:50:00,2,28225842,185263
OK,134,23,696,134,2014-10-02T07:55:00,4,28226291,185263
OK,166,19,696,166,2014-10-02T08:00:00,1,28226732,185263
OK,166,19,696,166,2014-10-02T08:05:00,0,28227181,185263
OK,166,19,696,166,2014-10-02T08:10:00,0,28227596,185263
OK,116,27,696,116,2014-10-02T08:15:00,1,28228044,185263
OK,116,27,696,116,2014-10-02T08:20:00,0,28228404,185263
OK,105,30,696,105,2014-10-02T08:25:00,4,28228853,185263
OK,65,48,696,65,2014-10-02T08:30:00,2,28229263,185263
OK,76,41,696,76,2014-10-02T08:35:00,6,28229710,185263
OK,91,34,696,91,2014-10-02T08:40:00,1,28230062,185263
OK,91,34,696,91,2014-10-02T08:45:00,0,28230511,185263
OK,91,34,696,91,2014-10-02T08:50:00,0,28230877,185263
OK,91,34,696,91,2014-10-02T08:55:00,0,28231324,185263
OK,92,34,696,92,2014-10-02T09:00:00,3,28231749,185263
OK,100,31,696,100,2014-10-02T09:15:00,2,28232540,185263
OK,151,20,696,151,2014-10-02T09:20:00,0,28232989,185263
OK,80,39,696,80,2014-10-02T09:25:00,4,28233438,185263
OK,88,36,696,88,2014-10-02T09:30:00,2,28233862,185263
OK,172,18,696,172,2014-10-02T09:40:00,0,28234644,185263
OK,272,11,696,272,2014-10-02T09:45:00,2,28235093,185263
OK,272,11,696,272,2014-10-02T09:50:00,2,28235520,185263
OK,87,36,696,87,2014-10-02T09:55:00,2,28235969,185263
OK,96,33,696,96,2014-10-02T10:00:00,1,28236412,185263
OK,96,33,696,96,2014-10-02T10:05:00,0,28236859,185263
OK,194,16,696,194,2014-10-02T10:10:00,1,28237261,185263
OK,86,36,696,86,2014-10-02T10:15:00,2,28237709,185263
OK,82,38,696,82,2014-10-02T10:20:00,3,28238158,185263
OK,82,38,696,82,2014-10-02T10:25:00,0,28238605,185263
OK,82,38,696,82,2014-10-02T10:30:00,0,28239046,185263
OK,120,26,696,120,2014-10-02T10:35:00,6,28239495,185263
OK,121,26,696,121,2014-10-02T10:40:00,6,28239925,185263
OK,120,26,696,120,2014-10-02T10:45:00,1,28240374,185263
OK,120,26,696,120,2014-10-02T10:50:00,0,28240818,185263
OK,70,45,696,70,2014-10-02T10:55:00,5,28241267,185263
OK,70,45,696,70,2014-10-02T11:00:00,3,28241699,185263
OK,82,38,696,82,2014-10-02T11:05:00,0,28242147,185263
OK,131,24,696,131,2014-10-02T11:10:00,2,28242543,185263
OK,127,24,696,127,2014-10-02T11:15:00,2,28242992,185263
OK,97,32,696,97,2014-10-02T11:20:00,1,28243441,185263
OK,97,32,696,97,2014-10-02T11:25:00,0,28243766,185263
OK,97,32,696,97,2014-10-02T11:30:00,0,28244204,185263
OK,93,34,696,93,2014-10-02T11:35:00,8,28244633,185263
OK,80,39,696,80,2014-10-02T11:40:00,3,28245082,185263
OK,80,39,696,80,2014-10-02T11:45:00,0,28245531,185263
OK,128,24,696,128,2014-10-02T11:50:00,1,28245937,185263
OK,156,20,696,156,2014-10-02T11:55:00,1,28246386,185263
OK,156,20,696,156,2014-10-02T12:00:00,3,28246823,185263
OK,177,17,696,177,2014-10-02T12:05:00,2,28247271,185263
OK,101,31,696,101,2014-10-02T12:10:00,0,28247718,185263
OK,70,45,696,70,2014-10-02T12:15:00,4,28248148,185263
OK,116,27,696,116,2014-10-02T12:20:00,1,28248597,185263
OK,121,26,696,121,2014-10-02T12:25:00,10,28249044,185263
OK,125,25,696,125,2014-10-02T12:30:00,6,28249472,185263
OK,152,20,696,152,2014-10-02T12:35:00,3,28249916,185263
OK,152,20,696,152,2014-10-02T12:40:00,1,28250300,185263
OK,87,36,696,87,2014-10-02T12:45:00,4,28250732,185263
OK,178,17,696,178,2014-10-02T13:20:00,4,28251593,185263
OK,144,22,696,144,2014-10-02T13:30:00,6,28252058,185263
OK,179,17,696,179,2014-10-02T13:35:00,1,28252195,185263
OK,179,17,696,179,2014-10-02T13:40:00,0,28252642,185263
OK,141,22,696,141,2014-10-02T13:45:00,5,28253084,185263
OK,94,33,696,94,2014-10-02T13:50:00,3,28253501,185263
OK,94,33,696,94,2014-10-02T13:55:00,3,28253950,185263
OK,118,26,696,118,2014-10-02T14:10:00,3,28254681,185263
OK,100,31,696,100,2014-10-02T14:15:00,1,28254804,185263
OK,158,20,696,158,2014-10-02T14:20:00,2,28255253,185263
OK,147,21,696,147,2014-10-02T14:25:00,1,28255702,185263
OK,151,20,696,151,2014-10-02T14:30:00,5,28256130,185263
OK,151,20,696,151,2014-10-02T14:35:00,3,28256579,185263
OK,127,24,696,127,2014-10-02T14:40:00,5,28257007,185263
OK,131,24,696,131,2014-10-02T14:45:00,9,28257456,185263
OK,163,19,696,163,2014-10-02T14:50:00,7,28257897,185263
OK,128,24,696,128,2014-10-02T14:55:00,1,28258345,185263
OK,115,27,696,115,2014-10-02T15:00:00,3,28258778,185263
OK,176,18,696,176,2014-10-02T15:05:00,2,28259224,185263
OK,162,19,696,162,2014-10-02T15:10:00,2,28259672,185263
OK,131,24,696,131,2014-10-02T15:15:00,4,28260120,185263
OK,131,24,696,131,2014-10-02T15:20:00,2,28260553,185263
OK,113,28,696,113,2014-10-02T15:25:00,3,28261000,185263
OK,99,32,696,99,2014-10-02T15:35:00,1,28261805,185263
OK,99,32,696,99,2014-10-02T15:40:00,0,28262254,185263
OK,109,29,696,109,2014-10-02T15:45:00,4,28262701,185263
OK,80,39,696,80,2014-10-02T15:50:00,1,28263147,185263